"read_dt","SO2 (ppb)","flags","PMT voltage (V)","lamp voltage (V)","lamp intensity (Hz)","internal temp (C)","react chamber temp (C)","sample flow (l/min)","pres (mmHg)","SO2 bkg (ppb)","SO2 coefficient"
2014-10-24 00:00:00,2069E-3,5C000000,-0724,0825,12335,027.2,045.5,0.478,737.0,01.18,0.508
2014-10-24 00:01:00,1695E-3,5C000000,-0724,0825,12159,027.2,045.4,0.478,736.9,01.18,0.508
2014-10-24 00:02:00,1808E-3,5C000000,-0724,0825,12279,027.2,045.4,0.478,737.0,01.18,0.508
2014-10-24 00:03:00,1759E-3,5C000000,-0724,0825,12293,027.3,045.4,0.478,737.0,01.18,0.508
2014-10-24 00:04:00,1842E-3,5C000000,-0724,0825,12363,027.3,045.5,0.478,737.0,01.18,0.508
2014-10-24 00:05:00,1940E-3,5C000000,-0724,0826,12266,027.3,045.4,0.478,737.0,01.18,0.508
2014-10-24 00:06:00,1801E-3,5C000000,-0724,0826,12235,027.4,045.4,0.478,737.0,01.18,0.508
2014-10-24 00:07:00,1811E-3,5C000000,-0724,0825,12068,027.4,045.4,0.478,737.0,01.18,0.508
2014-10-24 00:08:00,1836E-3,5C000000,-0724,0824,12136,027.4,045.4,0.477,737.0,01.18,0.508
2014-10-24 00:09:00,1738E-3,5C000000,-0724,0825,12260,027.4,045.4,0.478,737.0,01.18,0.508
2014-10-24 00:10:00,1766E-3,5C000000,-0724,0825,12219,027.4,045.4,0.478,737.0,01.18,0.508
2014-10-24 00:11:00,1806E-3,5C000000,-0724,0825,12223,027.4,045.5,0.478,737.0,01.18,0.508
2014-10-24 00:12:00,1834E-3,5C000000,-0724,0825,12098,027.4,045.4,0.478,737.0,01.18,0.508
2014-10-24 00:13:00,1783E-3,5C000000,-0724,0825,12375,027.3,045.5,0.478,737.0,01.18,0.508
2014-10-24 00:14:00,1837E-3,5C000000,-0724,0825,12245,027.3,045.4,0.478,737.1,01.18,0.508
2014-10-24 00:15:00,1824E-3,5C000000,-0724,0826,12090,027.3,045.4,0.478,737.1,01.18,0.508
2014-10-24 00:16:00,1766E-3,5C000000,-0724,0825,12015,027.3,045.4,0.478,737.1,01.18,0.508
2014-10-24 00:17:00,1773E-3,5C000000,-0724,0825,12180,027.2,045.4,0.478,737.2,01.18,0.508
2014-10-24 00:18:00,1766E-3,5C000000,-0724,0824,12366,027.2,045.4,0.478,737.2,01.18,0.508
2014-10-24 00:19:00,1680E-3,5C000000,-0724,0824,12169,027.2,045.4,0.478,737.2,01.18,0.508
2014-10-24 00:20:00,1713E-3,5C000000,-0724,0825,12486,027.2,045.4,0.478,737.2,01.18,0.508
2014-10-24 00:21:00,1674E-3,5C000000,-0724,0826,12310,027.1,045.5,0.478,737.1,01.18,0.508
2014-10-24 00:22:00,1871E-3,5C000000,-0724,0825,12253,027.1,045.4,0.478,737.2,01.18,0.508
2014-10-24 00:23:00,1707E-3,5C000000,-0724,0825,12155,027.1,045.4,0.478,737.2,01.18,0.508
2014-10-24 00:24:00,1876E-3,5C000000,-0724,0824,12205,027.1,045.5,0.478,737.1,01.18,0.508
2014-10-24 00:25:00,1789E-3,5C000000,-0724,0825,12084,027.1,045.4,0.478,737.1,01.18,0.508
2014-10-24 00:26:00,1822E-3,5C000000,-0724,0825,12323,027.1,045.4,0.478,737.2,01.18,0.508
2014-10-24 00:27:00,1900E-3,5C000000,-0724,0824,12409,027.1,045.4,0.478,737.2,01.18,0.508
2014-10-24 00:28:00,1856E-3,5C000000,-0724,0825,12332,027.1,045.4,0.478,737.2,01.18,0.508
2014-10-24 00:29:00,1920E-3,5C000000,-0724,0825,12104,027.1,045.4,0.478,737.1,01.18,0.508
2014-10-24 00:30:00,1717E-3,5C000000,-0724,0825,12034,027.1,045.4,0.478,737.1,01.18,0.508
2014-10-24 00:31:00,1781E-3,5C000000,-0724,0824,12318,027.2,045.4,0.478,737.1,01.18,0.508
2014-10-24 00:32:00,1759E-3,5C000000,-0724,0825,12349,027.1,045.4,0.478,737.1,01.18,0.508
2014-10-24 00:33:00,1810E-3,5C000000,-0724,0824,12168,027.1,045.4,0.479,737.1,01.18,0.508
2014-10-24 00:34:00,1761E-3,5C000000,-0724,0824,12191,027.1,045.4,0.478,737.2,01.18,0.508
2014-10-24 00:35:00,1692E-3,5C000000,-0724,0823,12382,027.1,045.4,0.478,737.2,01.18,0.508
2014-10-24 00:36:00,1673E-3,5C000000,-0724,0824,12272,027.1,045.4,0.478,737.2,01.18,0.508
2014-10-24 00:37:00,1726E-3,5C000000,-0724,0824,12248,027.1,045.4,0.479,737.1,01.18,0.508
2014-10-24 00:38:00,1783E-3,5C000000,-0724,0824,12237,027.1,045.4,0.478,737.2,01.18,0.508
2014-10-24 00:39:00,1795E-3,5C000000,-0724,0825,12404,027.2,045.4,0.478,737.2,01.18,0.508
2014-10-24 00:40:00,1928E-3,5C000000,-0724,0825,12132,027.2,045.4,0.479,737.2,01.18,0.508
2014-10-24 00:41:00,1737E-3,5C000000,-0724,0826,12322,027.3,045.4,0.478,737.2,01.18,0.508
2014-10-24 00:42:00,1754E-3,5C000000,-0724,0826,12275,027.3,045.4,0.478,737.2,01.18,0.508
2014-10-24 00:43:00,1769E-3,5C000000,-0724,0825,12216,027.3,045.5,0.478,737.2,01.18,0.508
2014-10-24 00:44:00,1811E-3,5C000000,-0724,0826,12456,027.3,045.4,0.478,737.2,01.18,0.508
2014-10-24 00:45:00,1628E-3,5C000000,-0724,0825,12158,027.3,045.4,0.478,737.2,01.18,0.508
2014-10-24 00:46:00,1768E-3,5C000000,-0724,0825,12399,027.3,045.4,0.478,737.2,01.18,0.508
2014-10-24 00:47:00,1834E-3,5C000000,-0724,0826,12272,027.2,045.4,0.478,737.2,01.18,0.508
2014-10-24 00:48:00,1977E-3,5C000000,-0724,0825,12015,027.2,045.4,0.478,737.3,01.18,0.508
2014-10-24 00:49:00,1792E-3,5C000000,-0724,0824,12202,027.2,045.4,0.478,737.3,01.18,0.508
2014-10-24 00:50:00,2015E-3,5C000000,-0724,0824,12298,027.2,045.4,0.478,737.3,01.18,0.508
2014-10-24 00:51:00,2391E-3,5C000000,-0724,0825,12168,027.2,045.4,0.478,737.3,01.18,0.508
2014-10-24 00:52:00,2856E-3,5C000000,-0724,0825,12249,027.2,045.4,0.479,737.4,01.18,0.508
2014-10-24 00:53:00,3138E-3,5C000000,-0724,0824,12261,027.1,045.5,0.478,737.3,01.18,0.508
2014-10-24 00:54:00,3256E-3,5C000000,-0724,0825,12242,027.1,045.5,0.478,737.3,01.18,0.508
2014-10-24 00:55:00,2952E-3,5C000000,-0724,0824,12304,027.1,045.5,0.478,737.3,01.18,0.508
2014-10-24 00:56:00,2789E-3,5C000000,-0724,0826,12124,027.1,045.4,0.479,737.3,01.18,0.508
2014-10-24 00:57:00,2550E-3,5C000000,-0724,0825,12182,027.2,045.4,0.478,737.3,01.18,0.508
2014-10-24 00:58:00,2411E-3,5C000000,-0724,0825,12353,027.2,045.5,0.478,737.3,01.18,0.508
2014-10-24 00:59:00,2365E-3,5C000000,-0724,0825,12181,027.2,045.4,0.478,737.3,01.18,0.508
2014-10-24 01:00:00,1961E-3,5C000000,-0724,0824,12152,027.2,045.4,0.478,737.3,01.18,0.508
2014-10-24 01:01:00,1829E-3,5C000000,-0724,0824,12315,027.3,045.4,0.478,737.3,01.18,0.508
2014-10-24 01:02:00,1832E-3,5C000000,-0724,0825,11992,027.3,045.5,0.478,737.3,01.18,0.508
2014-10-24 01:03:00,1829E-3,5C000000,-0724,0826,12405,027.3,045.5,0.478,737.3,01.18,0.508
2014-10-24 01:04:00,1831E-3,5C000000,-0724,0826,12287,027.3,045.4,0.478,737.3,01.18,0.508
2014-10-24 01:05:00,1789E-3,5C000000,-0724,0825,12339,027.3,045.4,0.478,737.3,01.18,0.508
2014-10-24 01:06:00,1863E-3,5C000000,-0724,0825,12404,027.4,045.4,0.478,737.3,01.18,0.508
2014-10-24 01:07:00,1850E-3,5C000000,-0724,0825,12260,027.3,045.4,0.478,737.3,01.18,0.508
2014-10-24 01:08:00,1776E-3,5C000000,-0724,0826,12273,027.3,045.4,0.478,737.4,01.18,0.508
2014-10-24 01:09:00,1785E-3,5C000000,-0724,0825,12201,027.3,045.4,0.478,737.3,01.18,0.508
2014-10-24 01:10:00,1832E-3,5C000000,-0724,0825,12307,027.3,045.4,0.478,737.3,01.18,0.508
2014-10-24 01:11:00,1746E-3,5C000000,-0724,0825,12307,027.3,045.4,0.478,737.4,01.18,0.508
2014-10-24 01:12:00,1710E-3,5C000000,-0724,0825,12243,027.2,045.4,0.479,737.4,01.18,0.508
2014-10-24 01:13:00,1762E-3,5C000000,-0724,0826,12207,027.2,045.4,0.478,737.4,01.18,0.508
2014-10-24 01:14:00,1712E-3,5C000000,-0724,0825,12097,027.2,045.4,0.478,737.4,01.18,0.508
2014-10-24 01:15:00,1894E-3,5C000000,-0724,0825,12172,027.2,045.4,0.478,737.4,01.18,0.508
2014-10-24 01:16:00,1964E-3,5C000000,-0724,0826,12229,027.2,045.4,0.478,737.5,01.18,0.508
2014-10-24 01:17:00,1799E-3,5C000000,-0724,0825,12232,027.1,045.4,0.478,737.4,01.18,0.508
2014-10-24 01:18:00,1824E-3,5C000000,-0724,0824,12158,027.2,045.4,0.479,737.4,01.18,0.508
2014-10-24 01:19:00,1717E-3,5C000000,-0724,0825,12296,027.2,045.4,0.478,737.4,01.18,0.508
2014-10-24 01:20:00,1766E-3,5C000000,-0724,0826,12179,027.2,045.4,0.478,737.4,01.18,0.508
2014-10-24 01:21:00,1790E-3,5C000000,-0724,0825,12237,027.2,045.4,0.478,737.4,01.18,0.508
2014-10-24 01:22:00,1768E-3,5C000000,-0724,0824,12248,027.2,045.4,0.479,737.3,01.18,0.508
2014-10-24 01:23:00,1819E-3,5C000000,-0724,0825,12280,027.2,045.4,0.478,737.4,01.18,0.508
2014-10-24 01:24:00,1770E-3,5C000000,-0724,0825,12195,027.1,045.4,0.478,737.4,01.18,0.508
2014-10-24 01:25:00,1793E-3,5C000000,-0724,0825,12125,027.1,045.4,0.478,737.4,01.18,0.508
2014-10-24 01:26:00,1755E-3,5C000000,-0724,0825,12169,027.1,045.4,0.478,737.4,01.18,0.508
2014-10-24 01:27:00,1831E-3,5C000000,-0724,0826,12190,027.1,045.4,0.479,737.4,01.18,0.508
2014-10-24 01:28:00,1718E-3,5C000000,-0724,0825,12300,027.1,045.4,0.478,737.4,01.18,0.508
2014-10-24 01:29:00,1624E-3,5C000000,-0724,0826,12240,027.1,045.4,0.478,737.4,01.18,0.508
2014-10-24 01:30:00,1807E-3,5C000000,-0724,0826,12226,027.1,045.4,0.478,737.4,01.18,0.508
2014-10-24 01:31:00,1751E-3,5C000000,-0724,0826,12124,027.1,045.4,0.479,737.3,01.18,0.508
2014-10-24 01:32:00,1863E-3,5C000000,-0724,0827,12247,027.1,045.4,0.478,737.4,01.18,0.508
2014-10-24 01:33:00,1865E-3,5C000000,-0724,0827,12384,027.2,045.4,0.478,737.4,01.18,0.508
2014-10-24 01:34:00,1809E-3,5C000000,-0724,0827,12267,027.2,045.4,0.478,737.4,01.18,0.508
2014-10-24 01:35:00,1801E-3,5C000000,-0724,0826,12024,027.2,045.4,0.479,737.3,01.18,0.508
2014-10-24 01:36:00,1725E-3,5C000000,-0724,0827,12169,027.3,045.4,0.478,737.4,01.18,0.508
2014-10-24 01:37:00,1739E-3,5C000000,-0724,0826,12188,027.2,045.4,0.478,737.4,01.18,0.508
2014-10-24 01:38:00,1911E-3,5C000000,-0724,0825,12039,027.3,045.4,0.478,737.4,01.18,0.508
2014-10-24 01:39:00,1716E-3,5C000000,-0724,0826,12144,027.2,045.4,0.478,737.3,01.18,0.508
2014-10-24 01:40:00,1894E-3,5C000000,-0724,0825,11986,027.2,045.4,0.478,737.4,01.18,0.508
2014-10-24 01:41:00,1942E-3,5C000000,-0724,0824,12246,027.2,045.4,0.478,737.4,01.18,0.508
2014-10-24 01:42:00,1960E-3,5C000000,-0724,0827,12181,027.2,045.4,0.478,737.4,01.18,0.508
2014-10-24 01:43:00,1859E-3,5C000000,-0724,0826,12270,027.1,045.4,0.479,737.4,01.18,0.508
2014-10-24 01:44:00,1972E-3,5C000000,-0724,0826,12341,027.1,045.4,0.478,737.5,01.18,0.508
2014-10-24 01:45:00,1759E-3,5C000000,-0724,0827,12225,027.1,045.4,0.478,737.4,01.18,0.508
2014-10-24 01:46:00,1816E-3,5C000000,-0724,0826,12163,027.1,045.4,0.478,737.4,01.18,0.508
2014-10-24 01:47:00,1822E-3,5C000000,-0724,0825,12077,027.1,045.4,0.479,737.4,01.18,0.508
2014-10-24 01:48:00,1854E-3,5C000000,-0724,0827,12124,027.1,045.4,0.479,737.3,01.18,0.508
2014-10-24 01:49:00,1832E-3,5C000000,-0724,0826,12288,027.2,045.5,0.478,737.4,01.18,0.508
2014-10-24 01:50:00,1731E-3,5C000000,-0724,0826,12005,027.2,045.4,0.478,737.4,01.18,0.508
2014-10-24 01:51:00,1746E-3,5C000000,-0724,0826,12172,027.2,045.4,0.478,737.5,01.18,0.508
2014-10-24 01:52:00,1739E-3,5C000000,-0724,0826,12141,027.2,045.5,0.479,737.5,01.18,0.508
2014-10-24 01:53:00,1776E-3,5C000000,-0724,0824,12346,027.2,045.4,0.478,737.4,01.18,0.508
2014-10-24 01:54:00,1843E-3,5C000000,-0724,0825,12163,027.2,045.4,0.478,737.4,01.18,0.508
2014-10-24 01:55:00,1766E-3,5C000000,-0724,0825,12463,027.2,045.5,0.478,737.5,01.18,0.508
2014-10-24 01:56:00,1901E-3,5C000000,-0724,0825,12225,027.2,045.4,0.478,737.5,01.18,0.508
2014-10-24 01:57:00,1737E-3,5C000000,-0724,0826,12276,027.2,045.4,0.478,737.4,01.18,0.508
2014-10-24 01:58:00,1697E-3,5C000000,-0724,0826,12168,027.2,045.4,0.478,737.4,01.18,0.508
2014-10-24 01:59:00,1870E-3,5C000000,-0724,0826,12349,027.2,045.5,0.478,737.4,01.18,0.508
2014-10-24 02:00:00,1757E-3,5C000000,-0724,0826,12209,027.2,045.4,0.478,737.4,01.18,0.508
2014-10-24 02:01:00,1872E-3,5C000000,-0724,0826,12422,027.2,045.4,0.479,737.4,01.18,0.508
2014-10-24 02:02:00,1825E-3,5C000000,-0724,0825,12212,027.1,045.4,0.479,737.5,01.18,0.508
2014-10-24 02:03:00,1724E-3,5C000000,-0724,0826,12255,027.2,045.4,0.478,737.5,01.18,0.508
2014-10-24 02:04:00,1750E-3,5C000000,-0724,0827,12247,027.1,045.4,0.478,737.4,01.18,0.508
2014-10-24 02:05:00,1813E-3,5C000000,-0724,0826,12038,027.1,045.4,0.478,737.4,01.18,0.508
2014-10-24 02:06:00,1764E-3,5C000000,-0724,0825,12316,027.1,045.4,0.479,737.5,01.18,0.508
2014-10-24 02:07:00,1757E-3,5C000000,-0724,0826,12250,027.1,045.4,0.478,737.5,01.18,0.508
2014-10-24 02:08:00,1661E-3,5C000000,-0724,0825,12300,027.1,045.4,0.478,737.5,01.18,0.508
2014-10-24 02:09:00,1914E-3,5C000000,-0724,0826,12225,027.1,045.4,0.478,737.4,01.18,0.508
2014-10-24 02:10:00,1818E-3,5C000000,-0724,0826,12294,027.1,045.4,0.479,737.4,01.18,0.508
2014-10-24 02:11:00,1748E-3,5C000000,-0724,0826,12273,027.1,045.4,0.479,737.4,01.18,0.508
2014-10-24 02:12:00,1759E-3,5C000000,-0724,0825,12389,027.1,045.4,0.478,737.5,01.18,0.508
2014-10-24 02:13:00,1783E-3,5C000000,-0724,0824,12185,027.1,045.4,0.478,737.4,01.18,0.508
2014-10-24 02:14:00,1773E-3,5C000000,-0724,0825,12170,027.1,045.4,0.478,737.5,01.18,0.508
2014-10-24 02:15:00,1843E-3,5C000000,-0724,0826,12177,027.0,045.4,0.479,737.4,01.18,0.508
2014-10-24 02:16:00,1734E-3,5C000000,-0724,0825,12241,027.0,045.4,0.478,737.5,01.18,0.508
2014-10-24 02:17:00,1637E-3,5C000000,-0724,0825,12111,027.1,045.4,0.478,737.4,01.18,0.508
2014-10-24 02:18:00,1737E-3,5C000000,-0724,0826,12296,027.1,045.4,0.478,737.5,01.18,0.508
2014-10-24 02:19:00,1792E-3,5C000000,-0724,0825,12207,027.1,045.4,0.479,737.4,01.18,0.508
2014-10-24 02:20:00,1886E-3,5C000000,-0724,0826,12154,027.1,045.4,0.478,737.5,01.18,0.508
2014-10-24 02:21:00,1760E-3,5C000000,-0724,0825,12166,027.2,045.4,0.478,737.5,01.18,0.508
2014-10-24 02:22:00,1857E-3,5C000000,-0724,0826,12187,027.2,045.4,0.478,737.5,01.18,0.508
2014-10-24 02:23:00,1865E-3,5C000000,-0724,0825,12279,027.2,045.4,0.479,737.5,01.18,0.508
2014-10-24 02:24:00,1771E-3,5C000000,-0724,0825,12225,027.3,045.4,0.478,737.5,01.18,0.508
2014-10-24 02:25:00,1722E-3,5C000000,-0724,0822,12123,027.3,045.4,0.478,737.5,01.18,0.508
2014-10-24 02:26:00,1913E-3,5C000000,-0724,0825,11985,027.3,045.4,0.478,737.4,01.18,0.508
2014-10-24 02:27:00,1859E-3,5C000000,-0724,0823,12257,027.3,045.4,0.479,737.5,01.18,0.508
2014-10-24 02:28:00,1720E-3,5C000000,-0724,0825,12178,027.2,045.4,0.478,737.5,01.18,0.508
2014-10-24 02:29:00,1741E-3,5C000000,-0724,0824,12240,027.2,045.4,0.478,737.5,01.18,0.508
2014-10-24 02:30:00,1890E-3,5C000000,-0724,0825,12174,027.2,045.4,0.478,737.6,01.18,0.508
2014-10-24 02:31:00,1717E-3,5C000000,-0724,0825,12281,027.2,045.4,0.478,737.6,01.18,0.508
2014-10-24 02:32:00,1702E-3,5C000000,-0724,0825,12168,027.2,045.4,0.479,737.6,01.18,0.508
2014-10-24 02:33:00,1833E-3,5C000000,-0724,0825,12220,027.1,045.5,0.479,737.6,01.18,0.508
2014-10-24 02:34:00,1690E-3,5C000000,-0724,0825,12343,027.2,045.4,0.478,737.6,01.18,0.508
2014-10-24 02:35:00,1870E-3,5C000000,-0724,0824,12149,027.1,045.4,0.478,737.5,01.18,0.508
2014-10-24 02:36:00,1740E-3,5C000000,-0724,0824,12130,027.1,045.4,0.478,737.6,01.18,0.508
2014-10-24 02:37:00,1760E-3,5C000000,-0724,0826,12132,027.1,045.4,0.478,737.6,01.18,0.508
2014-10-24 02:38:00,1812E-3,5C000000,-0724,0824,12175,027.1,045.4,0.479,737.5,01.18,0.508
2014-10-24 02:39:00,1894E-3,5C000000,-0724,0823,12197,027.1,045.5,0.479,737.6,01.18,0.508
2014-10-24 02:40:00,1837E-3,5C000000,-0724,0825,12313,027.1,045.4,0.478,737.6,01.18,0.508
2014-10-24 02:41:00,1802E-3,5C000000,-0724,0824,12314,027.1,045.4,0.478,737.6,01.18,0.508
2014-10-24 02:42:00,1698E-3,5C000000,-0724,0825,12378,027.1,045.4,0.478,737.6,01.18,0.508
2014-10-24 02:43:00,1873E-3,5C000000,-0724,0823,12085,027.1,045.4,0.479,737.6,01.18,0.508
2014-10-24 02:44:00,1837E-3,5C000000,-0724,0824,12297,027.0,045.4,0.479,737.5,01.18,0.508
2014-10-24 02:45:00,1837E-3,5C000000,-0724,0824,12234,027.1,045.4,0.479,737.7,01.18,0.508
2014-10-24 02:46:00,1822E-3,5C000000,-0724,0824,12146,027.1,045.4,0.478,737.7,01.18,0.508
2014-10-24 02:47:00,1928E-3,5C000000,-0724,0824,12252,027.1,045.4,0.478,737.6,01.18,0.508
2014-10-24 02:48:00,1900E-3,5C000000,-0724,0825,12182,027.1,045.4,0.478,737.6,01.18,0.508
2014-10-24 02:49:00,1838E-3,5C000000,-0724,0825,12304,027.2,045.4,0.479,737.7,01.18,0.508
2014-10-24 02:50:00,1725E-3,5C000000,-0724,0825,12236,027.1,045.4,0.478,737.6,01.18,0.508
2014-10-24 02:51:00,1913E-3,5C000000,-0724,0824,12133,027.2,045.4,0.478,737.7,01.18,0.508
2014-10-24 02:52:00,1750E-3,5C000000,-0724,0825,12108,027.2,045.4,0.478,737.7,01.18,0.508
2014-10-24 02:53:00,1842E-3,5C000000,-0724,0826,12289,027.2,045.4,0.479,737.7,01.18,0.508
2014-10-24 02:54:00,1786E-3,5C000000,-0724,0825,12224,027.2,045.4,0.479,737.7,01.18,0.508
2014-10-24 02:55:00,1798E-3,5C000000,-0724,0826,12340,027.2,045.4,0.478,737.7,01.18,0.508
2014-10-24 02:56:00,1700E-3,5C000000,-0724,0825,12108,027.2,045.4,0.478,737.7,01.18,0.508
2014-10-24 02:57:00,1806E-3,5C000000,-0724,0825,12173,027.1,045.4,0.478,737.7,01.18,0.508
2014-10-24 02:58:00,1734E-3,5C000000,-0724,0825,12250,027.1,045.4,0.479,737.7,01.18,0.508
2014-10-24 02:59:00,1818E-3,5C000000,-0724,0824,12151,027.1,045.4,0.479,737.7,01.18,0.508
2014-10-24 03:00:00,1673E-3,5C000000,-0724,0825,12326,027.1,045.4,0.479,737.7,01.18,0.508
2014-10-24 03:01:00,1767E-3,5C000000,-0724,0823,12372,027.1,045.4,0.478,737.7,01.18,0.508
2014-10-24 03:02:00,1771E-3,5C000000,-0724,0824,12198,027.1,045.4,0.478,737.8,01.18,0.508
2014-10-24 03:03:00,1703E-3,5C000000,-0724,0825,12473,027.1,045.4,0.478,737.7,01.18,0.508
2014-10-24 03:04:00,1758E-3,5C000000,-0724,0825,12006,027.1,045.4,0.479,737.7,01.18,0.508
2014-10-24 03:05:00,1897E-3,5C000000,-0724,0825,12229,027.1,045.5,0.479,737.7,01.18,0.508
2014-10-24 03:06:00,1809E-3,5C000000,-0724,0825,12489,027.2,045.4,0.478,737.7,01.18,0.508
2014-10-24 03:07:00,1728E-3,5C000000,-0724,0823,12213,027.2,045.4,0.478,737.8,01.18,0.508
2014-10-24 03:08:00,1790E-3,5C000000,-0724,0823,12083,027.2,045.4,0.478,737.7,01.18,0.508
2014-10-24 03:09:00,1690E-3,5C000000,-0724,0824,12062,027.3,045.4,0.479,737.8,01.18,0.508
2014-10-24 03:10:00,1772E-3,5C000000,-0724,0825,12183,027.3,045.4,0.478,737.8,01.18,0.508
2014-10-24 03:11:00,1907E-3,5C000000,-0724,0823,12357,027.3,045.4,0.478,737.8,01.18,0.508
2014-10-24 03:12:00,1794E-3,5C000000,-0724,0826,12127,027.3,045.4,0.478,737.8,01.18,0.508
2014-10-24 03:13:00,1765E-3,5C000000,-0724,0825,12336,027.3,045.4,0.478,737.8,01.18,0.508
2014-10-24 03:14:00,1639E-3,5C000000,-0724,0825,11983,027.2,045.4,0.478,737.8,01.18,0.508
2014-10-24 03:15:00,1790E-3,5C000000,-0724,0823,12360,027.2,045.4,0.478,737.8,01.18,0.508
2014-10-24 03:16:00,1741E-3,5C000000,-0724,0824,12229,027.2,045.4,0.479,737.9,01.18,0.508
2014-10-24 03:17:00,1782E-3,5C000000,-0724,0823,12174,027.2,045.5,0.479,737.8,01.18,0.508
2014-10-24 03:18:00,1825E-3,5C000000,-0724,0824,12172,027.2,045.4,0.479,737.8,01.18,0.508
2014-10-24 03:19:00,1900E-3,5C000000,-0724,0826,12295,027.2,045.4,0.478,737.8,01.18,0.508
2014-10-24 03:20:00,1816E-3,5C000000,-0724,0826,12204,027.2,045.4,0.478,737.9,01.18,0.508
2014-10-24 03:21:00,1947E-3,5C000000,-0724,0825,12078,027.2,045.4,0.478,737.8,01.18,0.508
2014-10-24 03:22:00,1831E-3,5C000000,-0724,0825,12437,027.2,045.4,0.478,737.9,01.18,0.508
2014-10-24 03:23:00,1802E-3,5C000000,-0724,0826,12212,027.1,045.4,0.478,737.9,01.18,0.508
2014-10-24 03:24:00,1742E-3,5C000000,-0724,0825,12230,027.2,045.4,0.479,737.9,01.18,0.508
2014-10-24 03:25:00,1652E-3,5C000000,-0724,0825,12084,027.2,045.4,0.479,737.8,01.18,0.508
2014-10-24 03:26:00,1817E-3,5C000000,-0724,0826,12294,027.2,045.4,0.479,737.8,01.18,0.508
2014-10-24 03:27:00,1914E-3,5C000000,-0724,0827,12176,027.2,045.4,0.478,737.8,01.18,0.508
2014-10-24 03:28:00,1876E-3,5C000000,-0724,0826,12342,027.2,045.4,0.478,737.9,01.18,0.508
2014-10-24 03:29:00,1831E-3,5C000000,-0724,0826,12243,027.1,045.4,0.478,737.9,01.18,0.508
2014-10-24 03:30:00,1850E-3,5C000000,-0724,0826,12445,027.1,045.4,0.478,737.8,01.18,0.508
2014-10-24 03:31:00,1865E-3,5C000000,-0724,0825,12223,027.1,045.4,0.478,737.9,01.18,0.508
2014-10-24 03:32:00,1688E-3,5C000000,-0724,0825,12326,027.1,045.4,0.479,737.9,01.18,0.508
2014-10-24 03:33:00,1695E-3,5C000000,-0724,0825,12212,027.1,045.4,0.479,737.9,01.18,0.508
2014-10-24 03:34:00,1899E-3,5C000000,-0724,0826,12305,027.1,045.4,0.479,737.9,01.18,0.508
2014-10-24 03:35:00,1763E-3,5C000000,-0724,0824,12280,027.1,045.4,0.479,737.9,01.18,0.508
2014-10-24 03:36:00,1695E-3,5C000000,-0724,0826,12289,027.1,045.4,0.478,737.9,01.18,0.508
2014-10-24 03:37:00,1622E-3,5C000000,-0724,0825,12287,027.1,045.4,0.478,737.9,01.18,0.508
2014-10-24 03:38:00,1772E-3,5C000000,-0724,0825,12222,027.1,045.4,0.478,737.9,01.18,0.508
2014-10-24 03:39:00,1762E-3,5C000000,-0724,0825,12194,027.1,045.4,0.479,737.9,01.18,0.508
2014-10-24 03:40:00,1737E-3,5C000000,-0724,0826,12276,027.1,045.4,0.479,737.9,01.18,0.508
2014-10-24 03:41:00,1776E-3,5C000000,-0724,0826,12377,027.1,045.4,0.479,737.9,01.18,0.508
2014-10-24 03:42:00,1751E-3,5C000000,-0724,0826,12069,027.1,045.4,0.479,737.9,01.18,0.508
2014-10-24 03:43:00,1831E-3,5C000000,-0724,0825,11844,027.1,045.4,0.478,737.9,01.18,0.508
2014-10-24 03:44:00,1844E-3,5C000000,-0724,0826,12332,027.1,045.4,0.478,737.9,01.18,0.508
2014-10-24 03:45:00,1648E-3,5C000000,-0724,0826,12223,027.1,045.4,0.479,737.9,01.18,0.508
2014-10-24 03:46:00,1861E-3,5C000000,-0724,0826,12390,027.1,045.4,0.479,738.0,01.18,0.508
2014-10-24 03:47:00,1806E-3,5C000000,-0724,0826,12268,027.1,045.4,0.479,737.8,01.18,0.508
2014-10-24 03:48:00,1716E-3,5C000000,-0724,0824,11951,027.1,045.4,0.479,738.0,01.18,0.508
2014-10-24 03:49:00,1794E-3,5C000000,-0724,0826,12513,027.1,045.4,0.478,738.0,01.18,0.508
2014-10-24 03:50:00,1775E-3,5C000000,-0724,0825,12033,027.1,045.4,0.478,738.0,01.18,0.508
2014-10-24 03:51:00,1695E-3,5C000000,-0724,0825,12265,027.1,045.4,0.478,738.0,01.18,0.508
2014-10-24 03:52:00,1835E-3,5C000000,-0724,0824,12368,027.1,045.4,0.479,737.9,01.18,0.508
2014-10-24 03:53:00,1836E-3,5C000000,-0724,0826,12294,027.1,045.4,0.479,737.9,01.18,0.508
2014-10-24 03:54:00,1787E-3,5C000000,-0724,0824,12315,027.1,045.4,0.479,738.0,01.18,0.508
2014-10-24 03:55:00,1852E-3,5C000000,-0724,0825,12125,027.1,045.4,0.479,738.0,01.18,0.508
2014-10-24 03:56:00,1837E-3,5C000000,-0724,0823,12326,027.1,045.4,0.478,738.0,01.18,0.508
2014-10-24 03:57:00,1736E-3,5C000000,-0724,0825,12300,027.2,045.4,0.478,738.0,01.18,0.508
2014-10-24 03:58:00,1754E-3,5C000000,-0724,0825,12245,027.2,045.4,0.479,738.0,01.18,0.508
2014-10-24 03:59:00,1811E-3,5C000000,-0724,0825,12202,027.2,045.4,0.479,738.0,01.18,0.508
2014-10-24 04:00:00,1811E-3,5C000000,-0724,0824,12229,027.2,045.4,0.479,738.0,01.18,0.508
2014-10-24 04:01:00,1798E-3,5C000000,-0724,0825,12295,027.2,045.4,0.478,738.1,01.18,0.508
2014-10-24 04:02:00,1815E-3,5C000000,-0724,0826,12002,027.2,045.4,0.478,738.0,01.18,0.508
2014-10-24 04:03:00,1829E-3,5C000000,-0724,0826,12176,027.1,045.4,0.478,738.0,01.18,0.508
2014-10-24 04:04:00,1866E-3,5C000000,-0724,0825,12379,027.2,045.4,0.478,738.0,01.18,0.508
2014-10-24 04:05:00,1818E-3,5C000000,-0724,0825,12386,027.1,045.4,0.479,738.0,01.18,0.508
2014-10-24 04:06:00,1887E-3,5C000000,-0724,0824,12222,027.1,045.4,0.479,738.1,01.18,0.508
2014-10-24 04:07:00,1899E-3,5C000000,-0724,0828,12309,027.1,045.4,0.479,738.1,01.18,0.508
2014-10-24 04:08:00,1849E-3,5C000000,-0724,0826,12307,027.1,045.4,0.479,738.1,01.18,0.508
2014-10-24 04:09:00,1798E-3,5C000000,-0724,0826,12115,027.1,045.4,0.478,738.1,01.18,0.508
2014-10-24 04:10:00,1763E-3,5C000000,-0724,0825,12116,027.1,045.4,0.478,738.1,01.18,0.508
2014-10-24 04:11:00,1772E-3,5C000000,-0724,0824,12463,027.1,045.4,0.478,738.1,01.18,0.508
2014-10-24 04:12:00,1713E-3,5C000000,-0724,0825,12103,027.1,045.4,0.478,738.1,01.18,0.508
2014-10-24 04:13:00,1714E-3,5C000000,-0724,0826,12172,027.1,045.4,0.479,738.1,01.18,0.508
2014-10-24 04:14:00,1864E-3,5C000000,-0724,0826,12264,027.2,045.4,0.479,738.1,01.18,0.508
2014-10-24 04:15:00,1908E-3,5C000000,-0724,0825,12476,027.2,045.4,0.479,738.1,01.18,0.508
2014-10-24 04:16:00,1696E-3,5C000000,-0724,0826,12199,027.2,045.4,0.479,738.0,01.18,0.508
2014-10-24 04:17:00,1848E-3,5C000000,-0724,0825,12173,027.2,045.4,0.478,738.1,01.18,0.508
2014-10-24 04:18:00,1939E-3,5C000000,-0724,0825,12033,027.1,045.4,0.478,738.1,01.18,0.508
2014-10-24 04:19:00,1661E-3,5C000000,-0724,0827,12353,027.1,045.4,0.479,738.2,01.18,0.508
2014-10-24 04:20:00,1922E-3,5C000000,-0724,0823,11913,027.1,045.5,0.479,738.1,01.18,0.508